This demonstration page uses our WeatherBlox Daily Observations layout. Learn more.

Left ArrowRight Arrow

44.89941, -97.11507

Hourly Observations for May 24, 2022

Temp ( °F °C ) Dew Point ( °F °C ) Humidity (%) Winds ( mph kmh ) Pressure ( in mb ) Visibility ( mi km ) Precip ( " mm )
12:53 am 00:53 Clear 49 9.4 42 5.6 77 77 Calm 30.17 1022 10 16 0.00 0.00
1:53 am 01:53 Clear 48 8.9 42 5.6 80 80 Calm 30.17 1022 10 16 0.00 0.00
2:53 am 02:53 Clear 46 7.8 42 5.6 86 86 Calm 30.16 1022 10 16 0.00 0.00
3:53 am 03:53 Clear 46 7.8 40 4.4 79 79 E 3 6 30.15 1021 10 16 0.00 0.00
4:53 am 04:53 Cloudy 47 8.3 40 4.4 77 77 Calm 30.16 1021 10 16 0.00 0.00
5:53 am 05:53 Sunny 42 5.6 38 3.3 85 85 Calm 30.16 1022 10 16 0.00 0.00
6:53 am 06:53 Sunny 42 5.6 39 3.9 89 89 SSE 3 6 30.17 1022 10 16 0.00 0.00
7:53 am 07:53 Sunny 50 10 38 3.3 63 63 SSE 7 11 30.17 1022 10 16 0.00 0.00
8:53 am 08:53 Sunny 54 12.2 38 3.3 55 55 SSE 12 19 30.17 1022 10 16 0.00 0.00
9:53 am 09:53 Sunny 58 14.4 38 3.3 48 48 S 12 19 30.17 1022 10 16 0.00 0.00
10:53 am 10:53 Sunny 61 16.1 38 3.3 43 43 SSE 7 11 30.16 1021 10 16 0.00 0.00
11:53 am 11:53 Sunny 62 16.7 36 2.2 38 38 E 10 17 30.16 1021 10 16 0.00 0.00
12:53 pm 12:53 Mostly Cloudy 64 17.8 38 3.3 38 38 ESE 14 22 30.14 1021 10 16 0.00 0.00
1:53 pm 13:53 Partly Cloudy 64 17.8 38 3.3 38 38 ESE 14 22 30.12 1020 10 16 0.00 0.00
2:53 pm 14:53 Partly Cloudy 65 18.3 38 3.3 37 37 ENE 17 28 30.10 1019 10 16 0.00 0.00
3:53 pm 15:53 Partly Cloudy 66 18.9 37 2.8 34 34 E 14 22 30.09 1019 10 16 0.00 0.00
4:53 pm 16:53 Partly Cloudy 64 17.8 36 2.2 35 35 ESE 14 22 30.08 1019 10 16 0.00 0.00
5:53 pm 17:53 Sunny 64 17.8 37 2.8 37 37 E 13 20 30.08 1019 10 16 0.00 0.00
6:53 pm 18:53 Sunny 63 17.2 36 2.2 37 37 E 12 19 30.08 1019 10 16 0.00 0.00
7:53 pm 19:53 Sunny 62 16.7 37 2.8 40 40 E 7 11 30.07 1018 10 16 0.00 0.00
8:53 pm 20:53 Sunny 60 15.6 39 3.9 46 46 E 8 13 30.06 1018 10 16 0.00 0.00
9:53 pm 21:53 Partly Cloudy 59 15 39 3.9 48 48 E 6 9 30.07 1018 10 16 0.00 0.00
10:53 pm 22:53 Mostly Cloudy 57 13.9 40 4.4 53 53 E 7 11 30.08 1019 10 16 0.00 0.00
11:53 pm 23:53 Clear 57 13.9 38 3.3 49 49 E 9 15 30.07 1018 10 16 0.00 0.00

Powered by AerisWeather